Theta_e
319 320 321 320 320 320 322 327 324 324 325 322 319 318 316 317 317 318 320 318 317 319 318 316 316 314 317 317 316 318 319 322 323 321 322 326 323 323 325 320 324 321 324 335 336 339 340 342 343 343 344 343 343 343 344 344 343 342 339 339 340 340 339 340 336 334 338 338 338 338 338 339 339 338 338 337 337 338 337 337 337 338 339 339 339 339 338 334 331 330 329 329 328 327 327 327 326
320 320 321 319 319 320 323 327 327 326 326 317 315 318 315 316 318 320 322 320 319 316 316 318 316 316 317 316 315 317 317 318 319 318 319 320 319 323 325 321 324 322 323 332 335 338 340 341 341 342 343 343 343 342 344 344 343 342 340 339 340 340 339 340 337 334 337 339 337 337 338 338 338 337 337 335 335 337 337 336 336 337 338 338 339 338 338 337 334 333 332 331 330 329 328 327 326
319 321 320 318 320 320 329 327 323 327 324 316 316 321 316 316 321 322 322 320 318 315 316 317 317 318 317 319 317 317 319 318 317 317 320 318 320 322 323 323 323 323 322 329 335 336 339 339 340 341 341 343 342 342 343 343 343 342 341 341 341 340 339 340 338 334 336 339 337 336 337 337 336 336 335 335 334 335 335 335 334 336 337 338 338 339 339 338 337 336 334 333 332 331 330 329 327
319 322 318 319 322 325 344 336 327 330 321 318 317 320 323 319 321 322 321 319 316 315 318 318 318 316 315 321 318 316 319 318 315 317 323 321 322 322 323 324 322 323 322 327 333 335 338 338 339 341 341 342 342 342 342 343 343 342 342 342 341 341 340 339 339 335 334 337 336 335 335 335 336 335 334 334 334 333 333 333 333 333 336 337 338 338 338 338 337 336 335 334 333 332 331 329 328
318 320 315 318 326 325 337 330 327 329 318 321 316 315 325 322 322 322 321 318 316 319 319 318 319 315 314 319 318 318 319 318 314 313 318 321 322 322 323 324 322 323 322 325 330 334 336 336 338 340 342 342 342 342 342 343 343 342 342 342 341 340 340 340 340 336 333 336 337 337 335 334 335 335 334 333 333 333 332 331 330 330 334 337 337 338 338 337 337 336 334 334 332 331 328 325 323
317 318 316 316 319 316 324 322 321 322 318 323 318 315 321 319 320 320 319 317 317 317 316 317 318 316 316 317 315 317 318 316 315 314 316 320 322 323 323 323 323 323 323 325 328 333 335 336 338 339 341 342 342 342 341 343 343 342 342 341 341 341 340 339 340 338 335 334 336 336 335 335 335 333 334 332 332 333 331 331 330 328 332 336 337 337 337 337 336 334 334 332 330 328 325 325 322
316 318 321 320 319 319 328 326 321 321 318 317 317 318 318 317 316 316 318 318 318 315 315 318 316 316 318 315 314 314 314 314 316 318 318 319 322 324 323 323 323 322 324 325 327 331 334 336 338 339 341 341 341 342 341 341 342 342 341 341 341 340 340 339 339 338 337 336 335 335 334 335 334 333 335 333 331 332 331 331 330 329 331 335 336 337 337 336 334 333 332 330 328 327 326 327 321
317 319 324 329 331 330 334 327 323 322 317 313 315 318 319 319 314 315 321 318 317 316 317 320 316 318 316 313 317 316 313 316 318 320 321 320 322 324 322 322 323 323 325 326 328 331 332 335 337 339 340 341 341 341 342 341 341 341 341 340 340 340 339 339 339 339 338 337 336 335 335 335 333 335 336 334 332 332 332 330 329 330 331 334 335 336 336 334 333 332 331 330 329 328 328 328 324
316 318 323 331 332 331 331 323 319 319 318 317 317 319 320 320 316 316 320 318 317 318 318 317 315 317 315 315 320 317 315 317 319 322 323 322 324 324 321 321 323 323 326 327 328 330 332 334 336 338 339 340 341 341 342 340 340 340 340 340 340 339 338 339 339 338 338 338 337 335 336 334 333 336 337 336 333 330 330 330 329 331 333 334 335 335 334 333 332 332 331 331 330 329 328 327 327
316 317 323 330 329 326 324 319 319 319 319 320 318 319 319 316 315 316 317 316 315 316 317 314 314 317 317 318 320 316 314 316 319 322 322 322 323 323 321 321 323 324 326 327 328 330 332 333 334 337 338 339 340 341 341 340 340 340 339 339 339 338 338 338 337 338 337 337 337 336 336 333 333 337 337 337 335 331 331 332 331 332 334 333 333 333 333 332 331 331 330 330 329 327 327 325 326
323 326 328 332 328 322 320 320 324 325 323 321 318 319 319 314 314 317 317 315 314 315 315 314 316 319 318 319 320 315 314 317 319 321 321 322 322 322 322 322 323 325 326 328 329 330 333 334 334 336 336 338 340 340 341 340 340 340 339 339 339 338 338 338 337 338 338 337 336 336 336 333 334 336 337 337 337 335 333 333 332 331 333 331 330 331 331 330 329 328 327 327 328 326 325 324 324
324 331 337 336 325 321 321 322 324 331 331 322 316 316 315 313 315 315 316 315 316 317 316 315 314 315 318 320 318 312 314 319 319 319 321 323 323 322 322 324 325 327 328 330 331 332 333 335 335 335 336 337 339 340 340 341 340 340 339 338 339 339 338 337 337 337 338 337 335 335 335 333 334 336 337 337 337 336 335 334 332 331 330 329 329 330 330 329 327 326 325 326 326 325 325 323 324
329 331 336 325 317 321 321 319 321 327 329 319 315 314 310 312 316 314 315 317 315 317 315 313 312 313 316 317 316 313 312 315 318 319 319 322 324 324 324 326 328 329 330 331 332 333 333 335 335 335 335 337 338 338 339 340 340 339 339 339 339 340 339 338 337 336 337 337 335 334 335 334 334 336 337 337 337 337 336 335 333 331 330 330 330 331 330 329 329 327 326 326 325 324 323 321 322
330 331 331 320 314 322 321 316 320 321 318 317 316 315 313 312 315 314 314 317 316 316 312 309 311 314 315 315 320 318 311 311 314 317 318 321 324 325 327 327 328 329 330 331 332 333 334 334 335 335 335 336 337 337 338 339 340 339 340 339 339 340 339 339 338 336 336 336 335 334 335 335 333 334 336 337 337 337 336 335 334 332 332 332 331 331 331 330 329 328 327 326 324 323 322 320 320
324 328 328 324 318 320 318 317 323 323 316 317 315 313 316 313 313 316 314 315 316 312 309 308 309 313 314 314 317 314 309 311 313 316 319 321 324 327 328 327 327 327 328 329 331 332 334 335 335 336 336 336 336 337 337 337 339 339 339 339 339 340 339 339 338 336 336 336 334 334 334 334 334 333 335 336 336 336 336 335 335 334 333 333 332 331 331 330 329 328 327 326 324 323 322 320 319
319 326 328 322 316 315 314 317 322 322 318 319 315 312 317 313 311 314 311 311 314 311 311 312 310 311 314 313 310 306 307 312 314 318 320 321 323 325 326 326 326 327 328 329 329 330 332 334 335 336 336 336 336 336 336 337 338 338 338 338 338 339 338 338 338 337 336 336 334 333 334 334 333 333 333 335 335 335 336 336 335 334 334 333 332 332 331 330 329 328 327 326 325 323 322 321 319
320 330 331 317 314 314 314 319 320 319 320 322 318 313 316 316 312 311 307 308 314 314 315 315 309 309 312 309 305 305 307 309 312 316 317 317 318 319 320 319 320 322 325 326 328 329 329 331 333 336 336 336 336 336 336 336 337 337 339 339 338 338 338 336 337 337 336 336 335 333 334 334 333 333 332 333 334 333 334 335 334 333 334 334 332 331 331 329 329 328 327 326 325 324 323 322 319
331 334 326 313 314 316 316 324 322 317 318 318 317 314 315 317 315 311 309 313 316 315 315 315 311 310 308 305 305 306 307 308 309 310 310 310 310 310 311 311 312 313 315 320 323 326 328 329 331 334 336 336 336 336 335 335 336 336 337 339 339 336 337 337 336 336 337 336 335 334 334 334 334 334 333 333 333 332 333 334 333 332 333 333 332 331 331 329 329 328 326 325 325 325 324 323 319
333 330 320 317 321 317 317 324 322 317 316 316 317 313 313 314 313 311 312 317 316 314 315 315 316 314 307 304 306 306 306 306 306 306 305 304 304 304 304 307 309 309 310 313 315 318 322 325 328 331 333 335 336 336 335 334 334 336 335 337 341 339 336 336 338 337 336 337 336 335 334 335 335 334 333 333 333 333 331 332 333 331 331 332 332 331 330 329 329 327 325 324 324 325 324 324 322
325 324 322 324 326 320 317 322 320 317 315 316 318 312 313 314 311 311 313 316 315 314 316 315 315 314 308 303 302 303 303 303 303 302 301 301 302 301 302 304 306 308 310 311 312 312 314 317 321 326 330 333 335 336 336 335 333 335 335 334 337 340 338 337 337 336 335 335 335 336 335 334 335 335 334 333 334 334 332 332 333 331 330 332 332 331 330 329 328 327 326 324 324 325 324 324 324
317 321 324 322 320 320 318 322 321 318 314 315 317 313 314 314 311 313 313 314 314 314 314 312 311 311 309 304 301 301 301 301 301 300 300 300 301 302 302 303 305 308 311 313 313 312 312 313 315 318 324 329 333 334 335 336 334 333 334 334 334 335 337 337 336 336 335 336 336 335 335 335 335 334 333 333 333 332 332 332 332 333 332 332 333 331 330 329 328 328 326 324 324 324 324 324 324
316 319 322 322 319 317 318 322 321 318 314 314 317 315 314 311 311 315 313 313 314 310 309 309 308 307 307 304 301 300 300 300 300 299 300 300 300 301 302 304 307 310 313 315 315 315 313 313 313 314 318 325 330 332 333 334 333 333 333 334 334 333 334 334 334 336 334 335 336 333 333 334 334 334 333 332 332 331 332 331 330 333 333 331 331 331 330 329 328 327 326 325 326 324 324 324 324
317 318 318 321 319 317 318 319 318 316 314 315 316 312 311 312 312 313 312 312 309 303 304 305 303 302 301 300 299 299 299 299 299 299 299 299 299 300 301 303 305 308 312 314 316 317 316 314 313 314 315 320 326 329 330 331 332 332 333 334 334 334 335 333 331 333 334 334 336 334 332 332 333 335 333 332 333 332 332 331 330 330 330 329 329 330 330 330 329 328 326 326 326 324 323 323 324
319 320 320 319 316 318 319 317 316 315 314 314 312 309 311 314 312 310 310 308 302 300 302 301 300 300 299 299 298 298 298 298 298 298 298 298 299 299 300 302 304 307 310 314 317 318 317 317 314 314 315 317 322 326 328 329 331 332 333 334 334 333 334 335 332 331 331 331 333 333 333 334 334 334 331 332 334 332 331 332 331 328 328 330 330 330 330 330 330 329 328 327 325 323 324 323 323
321 319 321 318 316 320 319 316 316 315 314 311 310 311 313 312 310 310 310 304 300 301 301 300 299 299 298 298 298 298 297 297 297 297 298 298 298 300 302 304 306 309 310 313 316 317 318 319 318 316 316 316 319 324 327 328 331 332 332 334 335 332 330 333 333 332 332 331 332 331 332 334 334 333 332 333 334 332 330 330 329 328 329 330 330 331 330 330 330 329 328 327 325 324 324 323 323
319 318 320 318 315 317 315 314 316 314 313 311 310 315 313 309 309 310 308 303 301 302 300 299 299 298 297 297 297 297 297 297 297 297 297 297 299 300 302 304 306 307 308 311 314 316 318 320 321 320 319 319 318 323 328 330 331 332 333 333 334 333 331 331 330 331 333 332 332 332 333 334 333 333 334 334 332 330 329 330 330 330 331 330 329 330 329 330 329 328 328 327 326 326 324 323 324
316 317 317 316 314 313 313 314 314 312 312 310 311 316 312 307 310 312 308 302 301 304 302 298 298 298 297 296 296 297 296 296 296 296 296 297 298 298 299 302 304 305 307 310 313 316 319 320 322 322 322 322 321 324 328 330 331 332 333 332 331 332 332 332 331 330 331 329 329 330 331 331 331 332 334 333 332 331 329 328 329 329 328 328 328 329 329 329 328 327 328 327 327 327 326 324 325
313 314 315 317 316 314 314 313 311 311 312 310 311 314 312 309 312 311 306 300 302 308 304 298 298 298 296 296 296 296 296 295 295 295 295 296 296 296 297 299 301 304 306 308 312 316 319 320 321 323 323 323 323 324 326 328 329 330 331 330 330 330 329 330 330 330 329 329 330 330 329 330 330 332 332 332 331 331 330 328 327 327 326 326 326 327 328 328 328 328 328 327 327 327 326 325 325
312 312 314 319 320 317 314 313 311 311 312 311 311 315 317 314 310 308 304 301 304 308 304 299 298 297 296 296 295 296 295 295 295 294 295 295 295 296 297 298 300 303 305 307 312 316 320 321 322 323 323 324 324 325 326 327 327 328 329 328 329 328 328 329 328 328 329 329 330 330 330 330 330 330 330 330 330 330 330 330 330 329 327 326 327 327 328 328 328 328 327 327 327 327 326 325 324
313 312 314 317 320 320 313 311 313 312 311 309 311 318 322 314 307 307 305 303 309 310 302 299 298 297 296 296 295 295 295 295 294 294 294 295 296 296 297 299 300 303 305 309 313 316 319 321 323 324 324 326 326 327 327 327 328 328 328 328 328 326 326 327 325 326 326 327 328 328 328 328 329 329 329 329 329 329 329 329 329 328 328 327 327 328 327 327 327 328 328 327 326 326 326 325 324
315 311 318 320 317 324 319 312 315 313 310 309 312 319 323 314 305 305 304 303 312 309 300 298 298 296 296 295 295 295 294 294 294 294 294 295 296 296 298 299 301 304 307 310 313 315 319 321 323 324 325 326 326 326 327 327 327 326 326 325 325 324 324 323 322 322 323 323 324 324 324 325 326 327 327 328 328 328 327 326 326 326 326 326 326 326 325 323 324 326 327 326 325 325 326 326 325
322 314 324 325 316 326 324 313 316 314 309 311 313 318 321 313 305 304 302 302 309 308 300 298 298 296 296 295 295 294 294 294 293 294 294 295 295 296 297 299 301 304 306 309 311 315 319 321 322 323 323 324 324 324 324 324 324 324 324 322 322 322 322 321 320 320 320 321 321 321 321 322 322 323 324 325 326 325 324 323 323 324 324 324 324 324 323 322 322 323 322 322 323 323 323 323 323
325 317 325 328 318 322 320 313 315 314 311 313 314 317 320 312 304 303 301 300 307 307 301 298 297 296 296 295 294 294 294 294 293 293 293 294 295 296 297 298 300 302 304 308 312 315 317 318 321 321 321 321 321 321 321 322 321 321 320 320 320 320 319 318 317 317 317 317 318 317 317 317 318 319 320 321 322 321 321 321 321 323 323 322 321 321 320 320 320 320 320 320 319 319 319 319 319
327 317 319 325 319 317 319 317 315 313 314 315 314 315 317 313 306 304 301 300 306 306 300 298 297 296 296 295 294 294 293 293 293 292 292 293 294 295 296 297 299 301 304 308 311 313 314 316 319 320 320 320 320 320 320 319 319 318 318 317 317 315 314 313 313 314 315 314 314 314 314 315 315 316 317 317 317 317 317 317 318 319 320 319 319 318 317 317 317 317 318 318 317 316 316 316 316
332 324 320 323 318 316 319 318 314 314 316 317 316 315 317 315 310 305 301 300 304 303 298 298 297 296 296 295 294 294 293 293 292 292 292 293 294 295 296 297 299 301 304 306 309 312 313 314 316 318 318 318 318 318 318 318 317 316 314 314 314 312 311 311 311 311 311 311 310 310 312 312 312 313 314 314 314 314 314 314 315 315 316 316 315 315 315 315 315 315 315 315 315 315 314 314 314
328 329 328 327 321 319 319 318 315 313 315 318 317 317 317 315 313 306 301 299 301 300 298 298 297 297 296 295 295 294 293 293 292 292 292 292 293 294 296 297 299 300 302 304 307 310 312 313 314 315 314 315 316 317 317 316 316 314 313 312 310 308 308 308 307 307 307 306 306 306 307 308 308 309 310 310 310 311 311 311 312 312 312 313 313 313 312 312 312 312 313 313 313 313 312 311 311
320 324 325 324 321 320 318 316 315 312 314 318 316 316 316 314 313 305 301 301 301 300 299 299 298 297 297 296 296 295 294 293 292 292 292 292 292 294 295 297 299 300 301 303 306 308 309 311 312 311 312 313 314 314 315 314 313 312 311 309 306 304 305 305 304 304 303 303 303 304 304 304 305 305 305 306 306 306 307 307 307 308 309 310 310 310 310 310 310 311 311 311 311 310 309 308 308
316 319 319 320 320 319 316 313 314 313 314 318 315 315 317 315 310 302 300 303 302 300 300 299 298 298 297 297 296 295 295 293 292 292 291 291 292 293 294 296 298 298 299 301 303 304 307 309 310 310 310 312 312 311 312 311 310 309 307 304 303 302 302 303 301 300 301 301 301 301 301 301 301 302 302 302 303 303 303 303 303 304 304 305 306 306 307 307 308 308 309 309 309 309 308 306 306
314 317 317 317 317 318 317 313 312 312 313 318 317 315 317 315 305 300 300 301 300 298 299 299 298 298 297 297 296 295 295 294 293 292 291 291 291 292 293 293 294 294 296 298 300 302 305 306 307 308 309 308 308 308 308 307 306 305 304 302 302 301 299 299 298 298 298 299 299 299 299 299 299 299 300 300 300 300 300 300 300 300 301 301 302 302 302 302 303 304 305 306 306 307 307 305 305
314 317 316 317 316 318 322 317 313 312 311 316 316 314 316 313 304 301 300 299 299 297 298 298 297 297 297 296 296 296 296 295 294 292 291 290 291 291 291 291 292 293 295 297 299 300 302 303 305 306 306 306 305 305 304 304 303 303 302 301 300 299 297 297 297 297 297 297 296 296 296 297 297 298 298 298 298 299 299 299 299 299 299 299 299 299 299 299 299 300 300 301 302 303 303 303 303
316 316 314 317 317 318 322 317 314 315 312 312 313 316 322 317 310 308 301 299 300 298 298 298 297 297 296 296 295 295 295 294 294 293 291 290 290 290 290 290 291 292 293 295 296 298 300 301 303 304 304 304 304 303 302 302 302 301 300 299 298 297 296 295 295 293 293 293 292 292 293 293 294 295 295 296 296 297 297 297 297 297 297 297 298 297 297 297 297 298 298 298 299 299 300 300 300
320 320 316 316 318 320 320 316 316 320 320 315 312 320 330 324 317 312 304 302 302 300 300 299 298 298 297 297 296 295 295 293 292 291 290 289 289 290 290 290 290 291 292 293 294 296 298 300 301 301 302 302 302 302 301 301 301 300 299 298 295 293 291 289 289 287 288 288 288 288 289 289 290 290 291 291 292 292 292 293 293 294 294 294 295 295 295 296 296 296 296 297 297 297 298 298 298
322 322 318 315 315 319 320 318 319 324 323 314 310 319 330 329 323 313 304 304 303 301 301 300 299 299 298 297 297 296 295 294 292 290 289 289 289 289 289 289 290 291 292 293 294 295 297 298 299 299 299 299 300 299 299 300 299 298 297 295 291 289 286 285 286 286 286 286 286 286 287 287 287 287 287 287 287 288 288 288 289 289 289 289 290 291 291 291 292 293 294 295 296 296 297 296 296
325 319 317 317 316 319 321 319 321 323 321 315 313 318 322 325 322 310 303 306 305 302 301 300 300 300 299 298 297 296 296 295 294 292 290 289 289 288 288 289 289 289 291 293 295 295 296 297 297 297 297 297 297 297 297 297 297 296 294 291 288 287 286 286 286 286 286 286 287 287 287 287 287 287 287 287 287 287 287 287 287 287 287 287 287 287 287 287 288 288 289 291 292 293 294 295 295
323 312 313 317 316 318 319 318 319 317 315 319 320 315 317 324 320 307 303 309 309 306 303 301 301 300 299 299 297 296 296 294 293 292 290 288 288 288 288 288 288 289 290 292 293 294 294 295 295 295 295 295 295 295 295 295 294 293 291 289 287 286 286 286 287 287 287 287 287 287 287 288 288 288 288 288 288 288 287 287 287 287 287 287 287 287 287 287 287 287 287 287 287 288 289 290 292
315 308 312 314 314 315 316 317 318 315 315 323 324 316 318 326 324 313 308 312 313 308 304 301 300 300 299 299 297 296 296 294 291 290 289 289 288 288 288 288 288 288 289 290 291 292 293 293 293 293 293 292 292 292 292 291 291 290 289 288 287 286 287 287 287 287 287 287 288 288 288 288 288 288 288 288 288 288 288 288 288 288 288 288 288 288 288 288 288 287 287 287 287 286 286 287 287
310 312 317 316 317 318 318 319 318 316 320 324 320 316 317 322 325 319 313 316 313 308 305 302 300 299 299 298 297 296 295 294 292 289 288 289 288 288 288 288 288 288 289 290 290 291 291 291 291 291 290 290 290 290 289 289 289 288 288 287 287 287 287 287 287 288 288 288 288 288 288 288 288 288 288 288 288 288 288 288 288 288 288 288 288 288 288 288 288 288 288 287 287 287 287 287 286
311 321 321 319 321 318 319 322 318 319 326 321 312 312 314 318 327 323 315 315 311 307 306 302 300 300 298 298 297 296 295 294 293 291 289 288 288 288 288 287 287 288 288 289 289 290 290 290 290 289 288 288 288 288 288 288 288 288 287 287 287 287 287 287 288 288 288 288 288 288 288 288 288 288 287 287 287 287 287 287 287 287 287 287 287 287 286 286 287 287 287 287 287 287 287 287 287
314 322 320 322 325 320 321 324 320 321 323 313 308 312 313 315 322 319 317 316 310 307 306 302 300 300 298 298 297 296 296 295 294 292 289 288 288 288 287 287 287 287 288 288 288 289 289 289 289 288 287 287 287 287 287 287 287 287 287 287 287 287 288 288 288 288 288 288 288 288 288 288 288 287 287 287 287 287 287 287 286 286 286 285 285 285 285 285 285 285 285 285 285 285 285 285 285
314 318 319 324 326 326 331 326 318 321 318 309 308 312 314 316 317 314 314 312 306 304 305 302 300 299 298 298 296 296 296 295 294 292 289 288 288 288 287 287 287 287 287 287 288 288 288 288 288 287 286 286 287 287 287 287 287 287 287 287 288 288 288 288 288 288 288 288 288 288 288 287 287 287 287 287 287 287 287 286 286 286 285 285 284 284 284 284 284 284 284 284 284 284 283 283 284
313 317 317 321 326 330 334 328 326 326 319 310 308 313 320 321 316 308 305 303 300 301 302 301 301 300 298 298 296 296 295 294 294 292 289 288 288 288 287 287 287 287 287 287 287 288 288 287 287 287 286 286 286 286 286 287 287 287 287 287 288 288 288 288 287 287 287 288 288 287 287 287 287 287 286 286 286 286 286 286 286 285 285 284 284 284 284 283 283 283 283 283 283 283 283 283 283
314 314 315 319 324 326 322 318 319 320 318 314 311 315 320 317 310 302 300 299 298 299 299 299 301 300 298 298 296 296 295 293 293 292 290 288 288 288 287 287 287 287 287 287 287 287 287 287 286 286 286 286 286 286 286 287 287 287 287 287 287 287 287 287 287 287 287 287 288 287 287 287 287 287 287 287 286 286 286 286 285 284 284 283 283 283 283 283 283 282 282 282 282 282 282 282 282
314 312 318 318 316 321 322 312 308 310 317 318 314 316 316 312 310 305 301 302 300 298 300 300 300 299 298 297 296 295 294 293 293 292 290 288 288 288 287 287 287 287 287 287 287 287 286 286 286 286 286 286 286 286 286 287 287 287 287 287 287 287 287 287 287 287 287 288 288 288 288 288 288 288 287 287 287 287 287 286 286 285 284 283 282 282 282 282 282 282 282 282 282 282 282 282 282
316 317 320 315 310 318 323 318 314 315 319 320 315 316 316 315 316 310 304 308 306 300 300 299 298 298 297 297 296 295 294 293 292 290 288 288 289 288 287 287 287 287 286 286 286 286 286 286 286 286 285 286 286 286 286 287 287 287 287 287 287 287 287 287 287 287 287 288 288 288 288 288 287 287 287 287 287 287 287 287 286 285 284 283 283 282 282 282 281 281 281 281 281 281 281 281 281
315 317 315 315 318 321 319 318 322 321 321 323 317 313 314 316 317 315 311 313 311 303 298 298 299 298 297 297 296 295 294 293 292 291 289 288 289 289 288 287 287 287 286 286 286 286 286 285 285 285 285 286 286 286 286 286 287 287 287 287 286 286 287 287 287 287 287 288 287 287 287 287 287 287 287 287 287 287 287 286 286 285 285 284 283 282 282 282 281 281 281 281 281 281 281 281 281
310 311 309 313 319 320 319 318 320 320 322 324 319 316 318 316 315 320 317 312 310 305 300 299 299 298 297 297 297 296 295 293 292 292 290 288 288 289 288 287 287 287 286 286 286 286 286 285 285 285 285 285 285 286 286 286 286 287 287 286 286 286 287 287 287 287 287 287 287 287 287 287 287 287 287 287 286 286 286 285 285 285 284 284 283 282 282 282 282 282 281 281 281 281 281 280 280
312 313 313 314 314 316 318 316 315 319 323 325 323 320 321 317 314 317 315 310 306 305 303 301 299 298 297 297 297 296 295 293 293 292 289 288 289 289 288 287 287 286 286 286 286 286 286 286 286 286 285 285 285 286 286 286 286 287 287 287 286 286 287 287 287 287 287 287 287 287 286 286 286 286 286 285 285 284 284 283 283 283 282 282 282 282 282 281 281 281 282 281 281 281 281 281 280
313 314 314 315 315 315 318 317 314 316 319 322 322 320 319 316 310 310 311 310 306 303 303 301 299 298 298 297 297 296 295 294 293 291 289 288 288 289 288 287 286 286 286 286 286 286 286 286 286 285 285 285 286 286 286 286 287 287 287 287 286 286 286 286 286 286 286 286 286 286 285 285 285 285 284 283 283 282 282 281 281 281 281 281 280 281 281 281 281 281 281 281 281 281 281 281 280
Wind_Speed
8 9 8 7 6 3 2 4 2 2 3 2 1 1 1 2 1 1 2 2 1 2 2 1 1 1 1 1 2 3 3 3 3 2 1 3 3 3 8 8 2 8 18 24 27 26 25 23 21 19 18 17 16 15 14 13 12 11 10 9 8 6 6 5 6 8 9 8 8 8 8 7 7 6 6 5 5 5 6 6 5 6 7 6 6 7 8 8 8 9 9 8 8 8 8 7 7
9 7 7 6 5 2 1 2 3 2 4 3 1 1 2 2 1 2 3 2 3 2 1 1 2 1 0 0 1 1 1 3 3 1 2 4 5 3 6 9 2 6 17 22 27 27 25 24 22 21 19 18 17 16 15 13 12 12 10 9 8 7 6 6 5 8 10 8 8 9 8 7 7 6 6 4 4 4 5 5 4 5 6 5 5 6 7 7 7 7 7 6 5 5 5 5 5
9 6 7 4 3 4 1 3 3 1 3 3 1 3 1 1 3 4 4 4 5 2 2 1 1 1 1 2 1 2 1 3 2 2 3 5 4 3 2 9 3 5 16 20 25 26 25 24 22 21 19 18 17 17 16 14 13 12 11 10 9 8 7 7 5 8 10 9 8 8 8 7 7 6 5 3 3 3 5 5 3 4 5 4 4 5 6 7 6 5 5 4 3 4 3 3 3
7 5 7 1 1 4 3 3 2 3 3 2 1 2 1 2 4 5 5 5 5 3 1 1 0 2 2 2 2 1 2 3 2 3 2 5 5 5 2 9 4 5 15 19 23 25 25 24 23 22 20 19 17 17 16 15 14 13 12 11 10 9 8 7 6 7 10 10 8 8 8 7 6 6 4 3 3 3 4 6 5 4 5 3 3 4 5 5 5 3 3 3 3 5 5 6 6
5 5 6 1 2 2 2 3 2 3 2 3 2 1 3 4 4 4 5 5 4 1 1 2 0 1 1 1 1 1 2 1 2 4 2 4 6 5 2 8 4 5 13 17 20 23 25 24 23 22 20 19 17 17 17 16 14 13 12 11 10 9 8 8 7 6 9 10 9 8 7 7 6 5 4 3 3 3 4 5 5 5 4 3 3 4 4 4 4 4 4 3 5 5 6 9 11
4 4 8 7 3 1 2 3 3 2 3 4 3 2 4 4 5 4 6 5 2 1 0 1 1 1 0 2 2 3 2 1 3 4 3 4 6 4 3 7 5 4 10 16 17 21 23 24 23 22 21 19 17 17 17 16 14 13 12 11 10 9 8 8 7 6 8 9 10 9 7 7 6 5 4 3 3 3 4 4 4 4 4 2 2 3 4 4 5 7 8 7 7 6 8 13 15
5 2 5 7 3 2 3 3 3 2 2 3 2 3 4 4 3 2 5 3 1 1 1 1 0 1 0 3 1 4 4 3 4 4 6 7 7 3 3 6 5 4 9 14 15 18 21 23 23 22 21 20 18 17 17 16 15 14 12 11 10 9 8 8 7 7 7 8 9 8 7 7 6 5 4 3 4 4 4 5 4 4 3 2 2 4 4 5 6 8 9 10 9 9 12 16 16
6 2 0 4 2 3 3 3 2 2 0 2 3 4 4 5 2 0 3 1 0 1 2 3 1 1 1 2 1 3 3 4 6 7 8 8 5 2 2 5 4 3 6 12 14 15 18 21 22 22 21 20 19 17 17 17 16 14 13 12 11 10 9 8 8 7 8 8 8 8 7 7 6 6 5 4 4 5 5 5 5 4 3 3 4 4 3 4 5 6 8 10 10 11 14 16 16
6 4 0 3 2 3 2 1 1 2 2 3 3 4 4 4 1 0 2 2 1 1 3 4 1 1 2 2 2 4 3 5 8 7 5 4 3 2 2 4 4 2 4 9 13 13 15 19 21 22 21 20 19 18 17 16 15 15 14 13 12 10 9 9 8 8 8 9 8 8 8 7 6 7 6 4 4 4 5 5 6 5 4 4 3 3 1 2 3 4 6 8 11 13 15 15 16
5 4 1 3 3 3 2 0 1 1 3 3 3 5 4 2 1 1 1 1 1 1 3 2 0 2 1 2 2 2 6 8 6 5 5 4 3 2 1 3 3 2 3 7 11 12 13 16 20 22 21 20 19 19 18 16 15 15 14 13 12 11 10 10 9 9 9 9 9 9 8 7 7 7 6 4 3 3 4 5 6 6 5 4 3 2 1 2 3 4 6 8 11 13 14 15 15
3 4 2 4 3 2 2 2 2 2 4 3 3 5 4 3 1 0 1 2 2 2 3 1 1 1 1 2 2 3 8 8 6 6 6 3 3 2 2 3 2 2 2 5 8 10 11 13 17 20 22 21 20 20 19 18 16 16 15 14 13 12 11 11 10 10 10 10 10 10 9 8 8 7 7 6 5 4 4 5 6 6 6 4 3 2 1 3 4 7 9 10 11 12 13 14 15
2 2 3 4 2 2 3 3 2 4 5 3 1 2 2 3 2 0 0 2 2 3 3 1 0 2 1 3 1 4 11 11 8 7 6 4 4 3 2 3 3 2 2 4 6 8 10 11 14 18 21 21 21 20 20 19 17 16 15 15 15 13 12 12 11 11 11 11 11 11 10 9 9 8 7 7 6 5 5 5 5 5 5 3 2 0 3 4 7 9 10 11 12 13 14 14 15
3 1 4 3 2 2 3 2 2 3 3 1 1 1 1 2 1 2 2 1 3 3 2 3 0 2 0 2 2 3 8 13 11 8 8 6 5 4 4 4 3 2 2 3 5 7 8 10 12 15 19 21 21 20 20 20 19 17 16 16 16 15 13 12 11 11 12 11 11 12 11 10 10 10 8 8 7 6 6 6 5 5 4 3 1 1 4 6 8 10 10 11 12 13 14 14 15
2 2 4 3 0 2 3 1 1 1 0 2 1 3 1 1 2 2 4 3 3 1 2 1 3 1 0 2 4 2 6 14 12 8 9 7 5 4 4 4 4 3 3 3 4 6 8 9 10 12 15 19 21 21 21 21 20 19 17 17 17 16 15 13 12 12 12 12 12 13 12 12 12 11 10 8 8 7 7 7 6 5 4 4 2 3 5 7 9 11 11 12 13 14 14 15 14
3 2 4 4 1 1 2 1 1 4 2 2 1 2 3 1 1 1 2 3 2 3 2 2 2 1 0 1 3 4 11 17 12 8 8 6 6 4 4 4 5 5 4 4 4 5 7 9 10 11 13 16 19 20 21 21 21 20 19 18 18 17 16 15 13 12 12 12 13 14 13 13 12 12 11 9 8 8 8 8 7 6 5 4 3 4 5 8 10 11 13 13 14 14 15 15 13
3 3 4 3 2 1 2 2 1 3 2 3 1 1 3 3 1 1 2 2 3 3 3 2 2 1 1 2 4 9 15 17 13 8 6 5 5 4 4 4 4 4 4 4 4 4 6 9 11 11 12 14 16 19 21 22 22 21 19 19 19 18 17 16 15 13 12 12 14 15 15 14 13 13 13 10 8 8 8 8 7 7 7 5 4 5 6 8 10 11 13 14 14 15 16 16 14
3 3 4 3 1 1 3 3 3 3 2 4 3 2 4 3 2 1 2 2 2 3 4 4 2 1 2 3 10 15 15 14 12 9 9 10 10 8 7 8 8 5 4 4 4 5 6 8 11 12 13 13 14 16 19 22 23 22 20 20 20 18 18 18 17 15 13 13 14 16 16 14 13 14 14 12 11 9 8 9 8 8 8 7 6 6 7 8 10 11 13 14 15 16 17 17 16
4 3 3 2 2 1 4 6 5 3 1 3 3 2 3 2 3 2 1 2 3 3 4 4 4 2 4 10 15 17 16 16 16 17 19 20 19 18 16 16 15 11 8 6 4 6 7 8 10 12 14 14 14 14 16 20 21 23 21 20 20 19 18 17 17 16 15 15 15 16 17 15 14 15 14 13 13 12 10 9 9 9 9 9 8 7 8 9 9 10 12 14 15 17 17 18 18
3 3 3 1 4 2 4 6 4 2 0 3 3 2 2 2 1 2 2 5 6 5 5 4 5 4 7 16 19 20 21 24 24 25 25 23 23 22 21 21 19 17 14 11 7 7 9 9 10 12 13 15 15 14 14 16 19 21 21 20 20 19 18 18 18 17 17 17 16 17 17 16 16 16 15 14 13 13 13 12 11 10 9 10 11 8 7 8 9 9 11 13 15 17 18 19 19
1 3 3 3 5 3 3 4 5 4 1 2 2 1 1 3 2 1 1 6 5 2 5 2 4 5 6 11 18 22 24 28 28 27 25 23 22 20 20 21 21 20 18 15 11 9 9 10 11 12 12 13 15 14 14 15 17 18 20 20 18 17 16 16 17 16 18 17 15 17 17 17 18 17 16 14 13 12 13 13 12 11 10 12 12 9 8 9 10 11 11 13 15 16 18 20 19
2 3 3 4 3 1 3 5 5 4 2 2 1 1 3 2 2 1 2 3 4 1 4 1 3 5 5 6 13 19 22 24 26 26 23 22 22 21 21 19 18 19 17 15 12 10 8 9 11 13 12 11 13 14 14 15 16 17 18 18 18 17 15 15 17 16 17 20 17 16 17 18 19 18 16 15 15 13 13 11 11 13 11 11 12 11 11 11 10 10 12 14 13 15 17 19 19
1 1 3 4 3 1 3 5 4 3 3 1 1 3 3 2 2 2 3 2 3 2 3 2 3 4 5 6 9 14 17 18 20 21 20 20 21 22 22 21 19 19 19 18 15 12 9 8 10 12 14 12 11 12 13 14 16 16 16 17 16 16 15 15 16 15 16 19 20 17 17 19 19 19 16 15 15 14 15 13 12 14 11 12 14 14 15 12 11 12 14 14 11 14 17 18 19
1 1 1 3 3 2 2 3 3 4 3 2 3 2 1 2 2 2 3 2 1 5 5 6 7 7 7 9 10 11 13 13 15 17 17 18 20 21 22 22 21 20 21 21 18 14 11 7 7 9 12 12 10 10 12 13 14 15 15 15 15 14 15 12 10 14 16 15 18 19 20 20 19 20 16 16 17 14 16 14 10 14 14 17 17 14 16 15 13 14 13 10 10 15 16 17 18
3 1 2 1 4 4 3 2 3 4 3 5 1 1 2 1 3 1 2 2 4 6 7 10 10 11 12 12 11 10 11 13 14 15 16 18 18 19 20 21 21 21 22 22 20 17 15 11 6 4 7 10 8 7 9 10 11 13 13 13 14 12 10 10 8 11 12 11 14 16 19 22 21 20 16 17 18 14 15 14 12 16 18 18 17 15 14 16 15 13 10 8 10 14 14 16 18
3 2 2 1 3 5 4 3 4 4 5 3 1 2 5 4 2 1 2 4 5 4 7 9 9 12 14 11 11 11 12 14 15 16 18 19 19 20 22 23 23 23 24 23 22 20 17 15 11 5 1 4 6 5 4 6 8 9 10 10 12 10 7 9 10 8 9 12 13 11 12 17 20 21 20 19 18 14 14 16 16 16 16 14 13 15 14 15 17 13 10 9 11 12 12 15 16
2 4 2 2 3 5 4 4 4 3 3 2 2 5 3 2 1 2 2 3 4 4 7 7 8 11 10 9 10 11 13 14 15 16 18 20 22 24 24 24 24 24 24 23 22 21 18 17 14 10 7 2 3 6 4 4 5 5 7 7 7 7 5 8 9 6 8 12 12 10 9 12 15 17 19 18 15 14 14 17 17 14 14 14 13 16 18 19 18 15 11 12 13 11 11 14 15
3 3 2 4 4 5 2 3 3 1 3 3 4 5 2 2 1 2 1 3 3 5 8 7 8 10 9 8 9 11 13 14 15 17 20 23 25 25 24 23 24 23 23 23 23 21 19 18 17 15 13 9 7 8 7 4 4 3 4 3 2 1 3 6 7 7 8 10 9 8 7 9 12 14 17 17 14 14 13 14 14 11 13 16 17 19 19 20 18 14 13 15 15 13 12 13 13
2 1 3 6 5 5 2 3 4 2 1 4 6 3 2 2 2 2 1 4 3 6 8 7 9 7 7 8 8 10 12 13 16 18 18 20 20 21 22 22 22 21 22 23 23 21 19 20 19 18 17 15 13 12 9 7 6 3 3 3 3 3 3 3 4 4 6 8 8 8 7 6 8 11 12 13 12 13 14 15 14 11 10 12 15 15 14 15 15 14 15 16 16 15 14 13 12
1 3 3 7 8 6 4 4 4 2 1 2 4 1 4 3 3 2 2 4 4 8 7 7 7 5 6 6 6 8 10 13 16 17 16 16 17 18 19 19 19 20 21 22 23 23 21 21 21 20 19 18 17 15 13 12 10 8 7 6 5 5 3 2 4 4 4 6 7 7 7 6 7 8 8 8 9 10 11 14 15 12 11 9 10 12 12 12 13 13 15 15 15 15 15 13 13
1 3 3 5 7 5 4 3 4 2 1 1 0 2 4 1 2 4 4 3 5 8 6 5 5 4 5 5 5 7 10 13 14 16 17 17 17 17 18 18 19 20 20 22 24 25 24 23 23 22 21 20 19 17 16 15 13 12 11 9 9 10 10 9 10 10 8 7 6 7 7 5 5 7 8 7 6 5 6 8 10 11 12 11 11 13 14 14 14 13 14 15 16 15 13 13 12
1 1 2 2 2 4 5 3 4 2 1 2 2 2 4 2 0 6 6 1 6 6 5 5 4 4 4 4 5 5 8 12 13 16 17 17 17 17 18 18 19 20 21 24 25 26 26 25 26 25 24 22 22 21 20 19 17 17 17 17 16 16 18 19 20 20 18 17 14 13 12 10 8 7 6 5 5 6 6 6 7 8 10 11 12 12 13 13 13 13 13 13 14 14 14 14 14
3 1 3 3 1 5 7 4 2 2 1 4 4 2 5 3 1 6 6 3 7 7 4 5 4 5 5 4 6 5 6 10 15 18 17 16 17 17 18 18 20 21 22 23 25 26 27 27 28 28 28 27 27 26 25 25 23 23 23 22 22 21 21 22 23 24 22 21 20 20 19 17 15 13 11 8 7 7 8 8 7 8 10 10 10 10 10 11 12 12 11 10 12 14 14 15 16
3 1 3 2 1 3 5 3 3 2 0 4 4 1 4 2 2 5 6 4 6 7 4 5 4 5 5 5 5 5 5 8 13 17 17 16 16 16 17 18 19 21 22 23 25 27 28 29 29 29 30 31 30 30 29 29 28 28 27 26 25 25 25 24 25 26 26 25 24 24 24 23 22 21 19 16 12 11 11 10 9 10 11 12 10 9 8 9 10 10 10 10 11 12 14 14 15
3 1 2 3 2 2 3 3 3 5 2 1 3 0 6 3 3 6 7 4 6 7 4 4 4 4 5 4 4 5 5 5 8 14 16 15 15 15 17 17 19 21 23 24 26 27 28 29 29 29 29 29 30 29 29 30 30 30 30 29 29 29 29 28 28 28 28 28 27 26 25 26 25 23 23 21 20 19 17 15 14 12 11 10 10 8 8 8 9 9 9 11 12 12 13 14 14
3 2 2 2 2 3 3 3 2 4 3 2 3 2 9 6 4 6 6 4 6 6 4 4 4 4 4 3 4 4 5 5 7 11 13 14 14 15 16 18 20 22 23 25 26 27 28 29 29 29 29 29 29 29 28 28 28 29 29 29 29 30 30 27 27 28 27 27 27 26 25 25 25 24 23 22 22 22 21 21 20 18 16 13 12 12 12 11 10 9 8 9 10 10 10 11 12
6 5 4 3 3 3 4 4 4 2 2 4 5 5 10 8 3 5 5 5 5 5 4 3 3 3 3 3 4 3 4 4 6 10 12 13 14 15 17 19 21 22 23 25 26 27 27 28 28 28 28 28 28 27 26 26 26 27 27 27 28 29 28 27 28 28 27 26 26 25 24 24 24 23 22 21 22 22 22 21 21 20 18 16 16 17 17 15 14 13 12 10 9 8 8 9 9
5 4 4 4 4 4 4 3 4 1 2 4 5 4 8 7 3 4 4 4 4 4 4 3 3 3 3 3 2 2 2 3 6 10 12 14 15 16 17 19 21 23 24 25 26 28 28 27 27 28 27 25 24 24 23 23 24 25 26 28 29 30 28 27 28 27 27 26 25 24 24 24 23 22 22 22 22 22 22 21 20 19 18 18 18 17 16 15 15 15 14 12 11 11 10 11 12
4 4 3 3 4 5 5 2 3 1 2 3 1 2 8 5 2 4 3 3 3 3 3 3 3 2 2 1 1 2 1 3 7 10 13 15 16 18 19 20 21 22 23 25 26 27 28 28 28 28 27 25 25 24 24 25 25 25 27 29 29 29 28 28 29 28 27 27 26 26 26 25 24 24 23 22 22 22 22 22 21 20 19 18 18 17 15 14 14 14 13 12 11 12 11 12 14
3 3 3 3 3 3 4 2 3 2 2 3 1 2 6 2 3 3 3 3 2 2 2 2 1 1 1 1 2 2 2 3 5 8 12 15 16 18 20 20 20 20 21 24 25 26 27 28 28 28 27 27 27 26 26 27 28 27 28 29 28 29 31 30 30 30 28 28 28 28 28 27 26 27 26 25 25 25 24 24 23 22 21 21 20 19 19 18 17 16 14 12 11 11 10 12 14
3 3 3 4 2 1 3 3 3 2 0 2 0 3 4 1 2 3 3 2 2 2 2 2 1 0 1 1 2 2 3 4 4 5 10 13 16 17 18 17 18 20 22 24 25 25 26 26 27 27 27 27 27 27 28 28 28 28 29 30 30 31 32 31 31 31 30 31 31 31 31 30 29 29 28 28 27 27 26 26 25 24 24 23 23 23 23 22 21 19 18 16 14 13 12 12 12
3 5 6 4 4 5 5 2 2 2 2 0 2 3 4 1 2 1 1 1 1 2 2 2 1 1 1 1 2 3 3 3 3 4 7 11 13 14 15 15 18 21 23 24 24 25 26 26 25 25 25 25 25 26 27 27 27 29 30 31 31 33 33 32 33 34 34 34 35 34 34 32 32 31 31 30 29 29 28 27 26 25 25 24 24 24 24 23 22 21 20 19 18 15 13 13 12
3 5 10 9 7 7 4 1 2 2 3 2 2 1 4 2 2 3 2 2 1 1 1 1 1 1 1 1 1 2 2 2 3 3 5 8 9 10 13 14 18 22 23 23 23 24 26 27 27 26 26 25 24 23 23 24 25 27 28 30 32 35 35 33 33 35 35 36 36 36 35 34 34 34 33 33 32 31 30 29 28 28 28 27 26 25 25 24 23 22 21 20 19 17 14 15 15
2 5 9 10 7 5 5 4 3 1 3 2 1 3 3 4 3 4 4 3 2 1 1 2 2 1 1 1 1 1 2 2 2 3 5 6 7 8 11 13 16 20 22 24 25 25 27 28 28 28 28 28 27 26 25 25 26 28 30 33 36 38 36 32 32 34 35 36 36 35 35 35 34 34 34 33 33 32 32 31 30 30 30 29 28 28 28 27 25 24 22 21 20 18 17 17 18
3 3 5 7 7 7 6 6 4 3 2 2 2 2 2 3 3 2 5 5 3 3 4 4 4 3 3 3 2 1 1 1 1 2 3 4 4 6 8 11 14 17 21 25 26 27 27 28 29 29 29 29 28 27 27 26 28 31 34 37 38 37 36 33 32 34 34 34 35 35 35 34 34 33 33 32 32 31 31 30 30 30 30 29 28 29 28 27 26 25 24 23 22 21 21 19 18
4 1 6 6 6 5 5 5 3 1 1 3 4 1 1 4 3 1 2 3 4 6 7 7 7 6 5 5 4 3 2 2 1 1 1 1 2 4 7 10 12 16 20 24 26 27 28 28 29 29 29 29 28 27 27 28 30 32 34 37 38 36 35 34 32 33 32 32 33 33 33 32 32 31 31 30 30 29 29 28 28 28 28 27 27 27 26 25 25 25 24 24 24 23 22 21 20
3 6 7 6 6 5 5 4 3 3 1 4 5 3 3 4 4 1 0 3 6 6 6 7 7 7 6 6 6 5 3 2 2 3 2 2 3 5 7 10 13 16 20 23 25 26 27 28 28 29 29 29 29 28 29 30 30 32 33 35 36 35 33 32 31 31 31 30 31 31 30 30 30 29 29 28 28 27 26 25 25 25 25 24 24 24 23 23 23 23 22 22 22 22 21 21 20
6 7 7 6 6 4 3 2 3 3 2 5 5 4 3 3 5 3 4 4 5 7 6 6 6 7 7 7 6 5 4 3 2 3 4 4 4 6 8 11 14 17 19 22 24 25 26 27 27 29 29 29 29 29 29 30 30 31 31 32 33 32 31 30 30 30 29 29 30 29 29 29 28 28 27 27 27 26 25 24 24 23 23 22 22 22 22 22 21 21 20 20 20 20 19 19 18
5 4 5 4 3 3 3 4 3 1 5 5 3 2 2 4 4 4 4 4 4 9 10 11 12 10 9 7 6 5 4 4 3 3 4 5 6 7 9 12 14 16 19 21 23 24 25 26 26 28 29 28 28 28 28 29 29 29 29 29 30 30 29 29 29 29 27 27 28 27 27 27 27 27 26 27 26 25 24 24 23 22 22 22 22 21 21 20 20 19 19 19 19 19 18 18 17
3 4 5 4 1 2 1 2 1 3 5 3 2 1 2 5 6 6 5 5 5 5 6 12 15 13 11 9 7 5 4 4 4 3 4 6 8 8 9 11 13 16 18 20 22 23 24 25 25 27 28 26 26 27 27 27 27 27 27 27 28 27 27 27 28 27 26 25 25 25 25 25 26 26 26 26 26 25 24 23 23 22 22 22 21 21 20 20 20 20 20 19 19 19 18 18 17
4 4 5 4 2 2 2 3 1 3 4 2 2 1 1 4 6 5 5 4 3 2 2 5 10 12 11 9 7 5 5 5 4 4 4 7 9 9 10 11 13 16 17 19 21 22 23 24 24 26 26 25 25 25 26 26 26 26 25 25 25 25 26 26 26 25 24 23 23 24 24 24 25 25 25 25 24 23 23 23 22 21 21 20 20 20 20 20 20 20 20 20 20 19 18 18 17
4 3 4 4 4 4 3 4 3 3 2 2 3 1 4 4 2 2 2 1 2 1 2 2 4 6 7 6 6 6 6 5 4 4 6 9 11 10 10 12 13 15 17 19 21 22 23 23 24 25 25 24 23 24 24 25 25 24 24 24 23 23 24 24 24 23 22 22 22 23 23 23 24 24 24 24 24 24 24 24 23 22 21 21 20 20 20 21 21 21 21 20 20 20 19 19 19
2 2 4 2 3 4 2 3 5 3 1 2 2 3 4 4 1 2 1 1 1 1 1 2 4 5 5 5 6 6 6 6 5 4 6 10 11 11 11 12 14 15 17 19 21 21 22 23 23 24 24 23 22 22 23 23 23 23 22 22 21 21 21 21 21 21 20 20 21 21 22 22 22 23 23 24 24 25 26 26 26 25 24 23 23 23 23 23 23 23 22 22 22 21 21 21 21
2 2 3 4 2 6 4 1 1 3 1 3 2 3 3 1 1 2 2 1 2 2 3 5 7 6 6 7 7 8 7 6 5 5 7 10 12 12 12 13 15 16 17 19 20 21 22 22 23 23 23 22 21 20 21 21 21 21 20 20 19 19 19 18 18 18 18 18 19 19 19 19 19 20 20 21 22 23 25 25 26 26 25 25 25 25 26 25 25 25 25 24 24 24 24 23 22
5 3 5 3 1 4 4 1 2 3 3 4 1 4 3 2 2 2 2 2 5 5 5 5 6 7 8 9 9 9 8 6 5 6 8 11 13 13 14 15 15 16 18 19 20 20 21 21 21 22 22 21 20 19 19 19 19 19 18 18 17 16 16 16 15 15 14 14 15 15 15 15 16 16 17 18 20 21 23 24 25 25 25 25 26 26 27 27 27 27 27 26 26 26 26 26 24
4 4 3 3 3 1 2 2 1 1 3 4 2 3 3 5 4 2 5 9 9 7 6 7 10 11 11 11 11 10 8 6 5 6 7 11 15 15 16 16 16 16 17 19 20 20 20 20 19 20 20 20 19 18 18 17 16 16 16 15 14 14 13 12 11 10 10 12 13 13 14 14 15 16 17 18 20 21 23 24 25 25 25 26 26 27 28 28 29 29 29 28 28 28 28 27 27
3 2 1 2 2 4 2 2 3 3 3 3 3 2 3 6 6 8 13 13 11 10 8 11 14 14 13 12 12 11 9 7 7 7 8 12 16 17 17 18 17 18 18 19 20 20 20 20 19 19 19 18 18 16 16 15 14 14 13 12 12 10 9 8 7 7 9 11 12 12 13 14 14 15 16 18 19 20 22 23 24 24 25 25 26 27 28 29 29 29 30 30 30 30 30 30 29
2 3 4 1 1 2 1 1 2 3 3 2 3 4 4 4 3 8 11 10 11 13 13 13 12 13 14 13 12 11 8 8 8 7 9 12 16 18 18 18 18 18 18 19 20 20 20 19 19 19 18 18 17 15 14 13 12 11 10 9 8 6 5 4 5 6 8 9 9 10 11 12 13 15 16 17 18 19 21 21 22 22 23 23 25 26 27 28 29 29 29 30 30 31 32 32 32
5 5 7 6 5 4 2 4 1 2 2 4 3 6 6 3 2 4 4 4 8 11 11 11 12 14 15 13 12 10 8 9 9 8 9 13 17 19 19 19 18 18 19 20 20 20 20 19 19 18 17 17 16 14 13 11 10 9 8 7 5 3 2 3 4 5 6 7 8 10 10 12 13 15 16 18 19 20 21 21 22 22 23 23 24 25 26 27 28 28 29 29 29 30 31 32 33
Wind_Direction
343 340 340 341 341 343 13 46 86 342 70 85 329 56 243 238 313 286 282 293 319 248 215 273 229 198 248 205 214 209 186 173 168 107 103 233 325 355 188 186 143 174 181 182 179 178 182 179 178 181 182 183 184 183 183 185 184 183 183 183 175 170 166 163 153 143 141 141 143 139 135 134 131 128 125 120 116 114 114 117 115 107 106 106 100 97 92 88 85 85 85 83 82 83 83 81 79
344 340 345 349 358 23 220 54 97 347 54 83 279 179 276 305 319 242 227 210 212 239 282 270 249 282 328 171 195 160 213 223 199 183 266 297 333 349 196 193 174 175 183 184 182 181 184 183 181 182 184 184 186 184 187 189 188 188 185 186 181 177 174 173 166 151 146 147 149 144 141 142 137 134 133 129 123 120 117 118 124 113 107 106 104 101 99 93 87 85 84 83 82 83 83 83 84
344 341 348 357 24 37 87 42 90 58 73 86 298 236 302 316 246 242 223 222 233 270 328 262 225 258 71 14 333 121 326 262 231 221 273 319 349 7 186 185 172 173 183 185 185 185 186 187 184 184 188 186 187 187 190 192 192 192 187 186 185 182 179 176 172 158 153 152 155 154 151 149 143 141 140 140 132 132 141 139 146 132 113 108 106 104 104 97 91 88 80 74 65 60 47 37 41
348 353 346 323 82 29 66 41 114 116 102 139 343 265 266 219 247 262 245 248 259 297 330 145 222 225 117 353 305 134 311 290 229 206 274 352 354 342 166 174 169 164 180 186 188 188 189 190 188 186 189 189 190 191 192 195 195 197 192 188 188 187 185 180 179 169 160 158 160 160 159 154 146 146 147 148 134 129 149 148 154 145 122 120 118 109 104 93 87 78 54 41 30 23 8 354 340
355 16 5 107 118 37 100 67 102 93 146 181 94 270 251 226 255 281 274 282 274 252 168 130 46 279 122 254 191 140 286 293 277 243 258 0 355 340 168 174 172 159 176 186 190 192 193 193 193 189 190 192 194 197 196 198 198 201 200 195 195 192 189 186 183 173 163 162 164 164 163 159 155 156 158 162 154 142 142 142 145 141 129 130 129 121 101 83 67 17 343 354 11 5 355 347 337
6 43 40 72 99 110 120 79 95 88 181 181 109 243 270 235 238 284 301 306 281 217 244 62 66 338 173 267 223 206 245 329 312 282 268 332 347 349 180 182 172 160 176 186 192 195 196 195 196 193 192 194 196 203 203 201 202 204 207 205 205 199 194 194 186 176 168 164 168 171 168 167 164 164 170 177 170 159 144 134 128 123 126 130 128 124 98 73 37 352 332 338 349 346 344 344 341
13 26 38 65 62 42 96 101 141 127 166 188 156 234 276 264 227 311 321 333 36 330 15 354 303 93 253 309 299 240 261 272 289 300 296 310 326 336 184 186 180 171 177 188 193 197 199 198 199 196 196 197 197 207 209 207 207 208 213 213 211 207 201 202 195 185 180 171 174 178 176 176 169 167 175 182 176 164 150 142 131 116 117 126 100 86 79 56 22 349 333 329 333 338 338 341 343
20 20 336 75 40 26 86 109 167 175 155 229 239 234 256 269 217 89 321 1 23 327 358 306 282 97 320 357 351 269 291 284 299 310 302 307 320 336 180 184 182 181 184 194 196 198 201 202 202 201 200 199 200 207 214 214 215 216 220 219 215 215 211 208 204 196 192 186 187 189 187 183 176 176 179 184 181 166 154 148 136 128 132 129 99 85 82 49 23 348 330 323 328 336 334 336 338
28 33 150 76 75 34 52 77 172 232 267 258 259 252 260 272 209 165 326 351 306 277 294 279 274 26 319 344 288 281 355 342 323 329 336 335 327 5 168 180 177 191 199 199 200 201 202 204 206 206 204 202 203 208 214 218 219 221 223 223 220 221 219 214 212 206 203 198 196 199 201 193 185 186 187 189 185 169 153 148 144 145 147 138 118 116 167 12 12 339 320 313 323 328 328 331 332
36 22 123 76 80 57 32 162 234 235 255 261 264 255 251 242 195 266 306 334 320 290 287 238 187 347 316 300 299 344 360 345 343 359 8 7 339 7 179 187 182 193 204 204 203 205 205 207 209 210 210 205 207 211 215 219 219 222 224 225 225 224 221 219 219 217 213 210 206 206 208 203 202 199 196 201 188 172 158 159 163 161 159 160 170 170 228 334 346 322 306 309 320 323 327 330 331
40 2 93 80 74 106 158 195 264 274 276 295 284 255 232 192 172 224 298 319 320 296 284 124 120 201 106 299 258 19 16 7 14 16 5 2 342 331 238 212 216 207 192 206 205 210 210 210 211 213 215 211 211 213 217 221 220 222 225 226 226 226 225 225 224 223 222 218 215 213 213 209 216 213 203 212 207 191 180 178 181 179 184 187 183 173 321 337 332 320 313 317 321 323 328 331 333
88 346 60 84 116 160 173 174 265 288 305 334 1 282 198 151 134 87 339 324 328 327 271 200 30 157 23 336 245 5 34 31 10 5 353 342 332 316 288 254 248 245 198 208 212 217 218 217 216 216 218 216 215 216 219 222 224 224 226 228 226 226 228 232 230 230 228 223 222 219 219 215 220 225 213 215 218 210 196 189 191 197 201 203 189 11 334 331 333 334 328 322 322 323 326 329 333
116 138 79 91 154 147 143 154 265 307 336 320 199 295 149 138 179 207 156 33 323 352 300 227 186 90 346 305 310 343 35 24 6 356 338 331 330 318 307 295 287 277 231 217 217 225 228 225 223 222 222 222 220 221 222 223 226 226 228 230 229 229 230 233 232 236 236 227 227 225 223 221 225 232 226 222 224 218 211 202 197 206 207 210 227 317 324 331 341 344 339 328 323 325 326 330 334
128 151 101 107 75 124 152 134 259 117 28 255 279 308 298 221 210 183 128 47 314 229 303 243 151 111 195 302 329 334 5 360 357 348 334 332 331 328 328 322 316 302 277 247 228 228 233 233 230 228 226 227 225 224 225 225 227 229 229 231 231 232 233 235 235 239 241 234 232 229 226 227 229 234 236 232 228 223 222 217 208 213 219 219 245 300 319 335 344 344 342 335 329 329 330 333 335
126 126 89 108 55 55 178 134 155 126 139 243 331 332 353 334 142 87 141 94 297 227 295 288 166 249 240 7 327 332 345 349 353 350 343 341 345 352 355 352 343 331 318 298 270 244 237 237 235 233 232 231 231 228 228 228 229 230 231 232 232 235 237 238 240 242 242 240 236 231 229 231 234 238 244 242 234 233 227 224 219 220 232 237 254 294 324 337 340 342 343 338 333 333 334 335 336
116 108 73 91 105 138 178 155 143 113 182 238 278 73 41 323 147 45 246 140 278 287 352 260 186 307 182 108 347 344 353 359 5 6 6 4 10 20 13 15 8 357 346 330 315 288 257 246 239 236 237 236 236 233 231 231 230 231 231 235 234 235 241 241 241 244 244 245 240 235 232 232 236 241 246 248 244 241 231 229 235 232 240 250 260 289 318 330 331 338 340 337 334 335 336 336 336
65 76 70 66 129 179 181 178 173 132 245 268 326 63 83 313 293 287 281 79 268 301 341 267 232 261 158 64 5 2 7 11 15 22 33 30 28 28 18 12 8 6 353 341 326 307 281 259 248 240 240 239 240 238 235 233 232 232 229 236 238 235 240 244 242 241 243 245 243 241 239 236 238 243 247 251 249 247 239 231 243 245 240 246 254 275 299 317 322 330 333 333 334 335 338 340 338
55 82 80 59 170 163 171 182 192 158 289 272 327 51 108 316 314 307 321 14 333 323 304 299 318 300 65 32 20 24 27 29 34 41 41 35 30 25 16 10 9 4 353 337 312 300 284 270 257 247 243 240 241 242 242 236 235 237 230 233 242 241 239 242 246 243 243 241 241 243 244 245 244 247 249 251 254 254 247 232 239 250 245 253 260 268 294 310 311 318 329 333 334 334 337 342 343
78 117 69 215 200 202 186 177 189 184 240 258 299 45 142 233 265 345 335 302 336 349 301 347 343 318 29 21 25 35 40 42 44 45 44 37 31 24 16 13 14 10 3 350 330 305 286 274 264 255 249 242 240 239 243 240 236 239 238 233 237 246 244 242 246 246 247 241 240 243 244 248 248 251 251 251 258 256 253 240 232 246 252 254 256 263 291 309 302 306 324 331 331 332 336 340 345
129 112 73 239 214 232 221 196 204 207 205 268 294 83 191 228 210 351 296 284 332 340 282 356 343 317 8 13 23 31 38 42 41 41 40 35 31 26 17 13 12 12 10 2 348 326 296 277 264 256 252 245 240 236 238 241 236 235 240 239 235 241 244 244 248 251 253 246 245 249 247 249 249 252 253 256 263 258 254 239 227 244 258 250 246 253 274 295 293 294 316 330 329 330 335 336 342
133 104 146 211 187 229 220 206 219 215 200 217 233 353 299 229 176 187 175 302 331 273 261 281 325 337 8 9 21 28 35 37 35 35 33 30 27 24 20 17 14 14 15 12 4 347 318 287 268 254 249 243 240 236 233 237 238 234 236 241 241 240 240 246 249 248 252 247 245 252 250 248 249 253 255 259 261 264 263 249 243 244 243 249 249 253 263 285 287 282 312 325 328 328 331 334 337
104 52 169 182 151 244 233 201 218 190 152 200 267 311 294 152 149 187 164 257 295 333 337 51 52 46 43 24 25 28 34 33 31 30 27 25 23 20 20 20 21 22 21 19 15 5 344 307 278 259 248 241 236 236 234 234 236 236 236 239 244 247 249 253 252 247 257 255 245 247 249 246 250 253 256 262 258 265 263 252 258 247 238 256 254 255 260 272 276 274 305 317 320 326 327 330 332
82 316 244 205 182 224 233 183 205 162 115 250 242 286 310 48 330 202 152 230 303 20 38 75 69 72 66 48 39 31 31 32 31 28 24 23 21 19 18 20 20 20 22 21 19 14 3 344 299 270 254 245 237 235 238 236 234 235 236 241 244 248 247 247 258 258 267 268 249 249 251 245 245 246 250 261 255 262 260 247 262 261 260 261 247 248 257 259 264 274 301 312 314 324 325 325 327
90 248 292 204 184 218 223 171 195 176 203 250 225 344 285 337 306 246 88 26 45 45 58 73 69 63 58 50 42 38 36 32 30 29 29 28 24 23 22 23 22 21 23 23 23 22 18 16 1 301 260 249 238 233 240 234 234 236 236 240 247 260 251 234 259 274 278 285 268 266 259 245 240 241 247 254 247 252 262 260 272 269 264 258 240 238 251 255 256 269 293 303 316 323 321 321 322
92 217 275 137 199 244 258 265 254 228 237 244 107 277 249 210 197 73 18 36 60 62 56 58 65 57 50 47 40 38 37 31 25 25 28 28 27 30 31 29 29 29 26 24 25 27 29 30 31 38 43 250 228 209 233 235 230 237 240 241 248 269 276 254 266 271 271 280 281 287 274 250 242 241 242 243 240 248 264 268 270 269 270 268 252 246 252 258 255 262 278 295 310 316 320 322 318
200 180 234 261 282 293 296 275 256 234 242 155 168 281 287 209 154 68 347 54 77 70 55 43 54 54 46 44 39 36 35 29 20 21 25 26 29 30 30 30 31 31 27 28 29 31 36 41 44 51 67 83 180 165 165 210 218 232 240 244 250 256 276 292 301 299 282 286 285 287 281 266 261 255 243 236 242 254 262 262 256 259 274 277 277 273 265 258 256 257 269 294 302 301 316 321 314
188 159 229 252 294 301 284 268 274 252 248 172 207 276 322 268 55 110 345 50 87 71 52 35 50 51 43 42 39 38 37 30 21 24 25 23 26 24 23 27 30 31 32 35 36 38 44 51 55 58 68 77 99 125 137 157 176 200 207 233 291 283 300 311 331 334 320 327 323 309 294 286 289 277 252 239 243 251 260 265 259 264 281 272 270 280 273 257 254 256 270 295 298 292 299 307 309
121 74 292 292 324 305 305 323 308 330 250 176 184 242 314 342 56 152 345 36 75 76 56 34 49 45 39 44 40 40 36 32 28 29 26 18 19 18 19 24 26 33 37 38 42 47 54 58 63 65 69 75 84 99 112 117 122 141 141 91 61 62 20 347 10 352 326 336 335 328 321 314 309 288 264 255 255 260 265 261 255 266 287 274 264 276 280 265 260 263 277 295 297 290 287 293 308
96 44 329 309 348 336 330 355 315 355 29 181 168 273 338 25 105 221 339 67 72 66 58 32 45 38 36 42 39 44 34 31 31 30 26 21 23 23 25 27 30 37 42 46 52 57 63 67 70 72 75 79 82 89 97 103 105 107 110 99 91 83 70 49 38 20 334 328 321 322 321 310 301 289 285 285 284 289 282 261 251 262 279 275 264 270 275 267 262 268 280 289 288 287 290 298 313
286 41 35 316 353 338 320 2 316 343 73 303 63 298 312 17 140 296 319 109 82 58 52 31 37 32 34 36 39 44 33 31 30 27 26 27 31 32 34 38 42 45 49 56 60 64 69 75 78 79 81 84 85 89 93 97 101 100 100 95 84 73 71 69 62 56 47 37 16 355 348 331 307 294 293 289 288 303 299 275 268 275 278 269 264 273 278 268 263 273 283 285 282 284 294 301 305
333 16 43 357 357 286 300 345 337 18 89 348 93 218 271 204 200 329 331 92 103 77 53 38 33 33 31 30 38 39 34 32 29 29 30 32 36 40 43 45 51 55 59 63 65 69 75 80 84 85 85 87 89 91 92 93 95 94 90 87 84 79 74 70 68 66 61 58 52 45 41 30 13 346 327 318 317 321 318 308 296 295 293 283 276 281 286 276 273 283 287 290 295 293 295 295 293
30 343 307 347 144 270 309 342 13 73 355 10 97 206 277 172 146 342 353 49 97 89 57 43 34 32 35 29 36 34 28 29 29 30 30 34 39 44 48 50 56 61 64 68 72 77 81 84 86 88 88 89 91 93 93 94 95 94 91 88 85 82 78 74 72 71 67 63 59 58 57 53 49 44 39 25 357 346 344 345 339 330 325 320 309 296 294 289 287 292 292 295 297 293 292 293 291
358 77 247 272 190 277 324 342 359 27 13 5 59 207 287 139 127 349 17 54 86 86 63 47 40 32 39 32 33 33 24 22 22 22 24 34 40 45 51 55 60 64 69 75 79 82 85 86 89 90 90 91 92 93 94 94 94 93 92 90 86 83 79 76 74 73 71 68 65 63 64 65 62 57 53 50 44 38 28 19 11 357 346 344 344 332 323 318 307 304 303 301 296 291 290 290 292
311 27 228 248 213 221 310 303 339 11 83 19 27 60 265 232 98 14 18 48 81 84 66 51 49 37 40 36 37 34 27 28 14 10 18 31 41 49 56 59 65 70 75 80 83 86 88 90 92 93 94 95 94 94 94 93 92 91 89 88 86 82 78 75 73 71 69 67 66 64 64 65 62 58 58 59 59 57 53 49 43 32 17 9 12 13 10 1 346 334 324 318 316 312 307 303 304
191 174 196 254 244 219 266 261 279 354 21 347 346 298 268 268 68 30 7 37 77 83 71 61 52 42 45 38 44 38 31 37 14 9 22 37 46 53 59 64 70 76 80 83 87 91 93 94 97 99 100 99 99 98 97 95 93 90 87 85 83 80 77 73 71 70 68 67 67 64 62 63 63 61 59 60 60 60 59 57 55 53 48 46 46 45 41 32 22 14 3 353 344 337 332 326 322
165 171 153 178 226 244 237 239 257 301 17 295 273 261 267 277 14 25 3 30 70 81 68 62 47 39 44 38 41 38 39 35 13 22 37 47 52 58 64 69 74 78 82 85 90 94 95 97 100 100 100 100 102 101 99 98 95 91 87 84 81 79 78 74 70 69 69 68 68 65 62 62 62 61 60 60 59 59 57 55 54 53 51 50 50 49 47 43 40 37 33 28 19 16 9 357 352
129 131 137 179 212 259 243 233 288 294 143 262 251 249 267 275 348 7 351 23 56 60 57 54 44 35 27 35 40 35 51 35 26 39 47 53 59 65 70 74 78 80 82 86 89 91 93 97 99 97 96 100 100 99 98 97 95 92 89 86 83 80 78 77 73 70 70 69 68 66 64 63 63 62 62 61 61 60 59 58 56 54 50 47 47 47 45 41 39 36 35 33 29 31 29 21 14
111 138 174 223 213 247 253 218 306 335 178 259 6 286 269 267 17 4 4 43 41 25 51 50 32 26 4 20 29 21 41 29 32 39 44 52 59 65 71 74 77 76 78 83 87 90 93 96 97 95 95 97 97 97 98 97 97 97 94 91 88 83 79 78 76 73 71 71 69 67 67 67 66 66 65 63 63 62 61 60 59 59 57 53 52 51 46 41 37 32 29 26 25 26 27 24 20
127 129 162 242 225 253 282 280 329 11 181 251 23 302 268 252 66 34 34 63 56 16 49 44 3 1 344 11 28 27 37 27 25 27 34 46 55 63 69 70 72 74 77 82 86 91 95 97 98 99 99 99 98 99 100 99 99 98 97 94 92 87 82 80 79 76 74 72 69 68 67 66 66 67 67 66 66 65 65 64 63 62 61 58 57 55 52 49 45 41 36 31 29 27 29 26 22
165 144 166 235 217 198 270 277 311 358 132 243 244 300 277 167 90 56 55 84 92 48 55 49 350 263 306 326 358 22 39 28 17 15 27 42 53 60 64 66 71 76 79 82 86 89 94 97 101 104 104 103 104 104 102 103 102 100 98 96 95 91 87 85 83 79 76 74 71 69 67 66 66 66 65 65 65 66 65 64 64 62 60 58 56 55 53 51 48 45 43 41 38 34 35 33 29
227 197 200 219 199 206 230 262 299 341 8 292 151 317 303 207 180 134 104 132 84 29 53 54 355 294 312 341 3 15 20 11 10 8 17 35 48 56 62 68 73 77 79 81 84 89 93 98 102 105 107 108 109 109 109 109 108 105 103 100 97 92 87 84 81 77 76 75 73 71 71 69 68 67 66 65 64 64 63 62 61 59 58 56 54 53 51 48 46 42 41 40 39 37 34 35 34
270 226 210 212 206 209 215 84 32 21 336 285 154 245 292 294 229 199 177 155 119 26 53 40 321 323 345 17 15 8 9 355 4 5 11 32 49 60 68 73 77 79 81 83 87 91 95 98 101 104 106 108 111 113 115 116 114 110 107 100 94 89 83 79 78 78 77 77 76 75 74 72 71 70 68 67 66 65 64 63 61 59 58 56 54 52 50 47 43 40 37 35 37 36 32 34 31
272 243 206 203 191 175 166 141 121 146 247 280 113 174 245 310 286 199 169 152 174 183 152 231 260 276 262 252 306 333 353 352 0 9 20 37 50 60 68 73 79 84 88 91 93 95 97 99 100 101 102 104 106 109 111 112 110 105 101 96 93 91 88 84 83 83 81 81 80 77 75 73 71 70 69 68 67 66 65 64 63 62 60 58 56 54 52 50 47 44 40 37 37 32 31 35 30
233 250 156 161 166 171 171 159 168 220 251 314 357 144 199 287 278 202 158 151 184 205 198 219 226 218 221 225 239 249 270 301 325 356 13 35 52 65 73 77 83 90 95 98 98 97 99 99 100 100 100 100 102 103 104 103 102 101 99 97 95 94 94 92 90 87 85 84 81 78 75 73 70 69 67 66 65 64 63 63 62 61 61 59 57 56 55 53 50 48 45 43 41 37 34 34 30
236 165 110 131 148 156 147 142 171 305 336 288 302 82 207 262 269 336 134 185 227 214 200 206 207 205 204 207 216 219 226 234 227 241 310 40 91 94 95 96 97 99 99 100 101 101 101 101 101 100 100 100 100 101 101 100 101 101 101 101 98 97 96 95 93 90 88 85 81 78 75 73 70 67 66 64 62 61 60 60 59 58 58 57 56 55 54 52 50 48 46 45 44 43 42 38 34
190 124 95 80 74 80 89 110 116 47 10 245 245 195 209 269 274 305 89 245 237 207 200 206 202 204 203 201 205 202 204 209 211 216 216 191 154 129 120 115 109 106 104 104 104 105 104 104 103 101 101 102 102 102 102 101 101 101 101 101 101 100 99 97 94 90 86 83 80 77 73 70 67 64 61 59 58 56 55 55 54 54 53 52 51 50 49 47 46 45 44 43 43 43 43 41 39
144 112 78 63 46 47 53 63 87 61 279 250 241 215 207 267 271 222 196 232 202 168 182 205 203 209 210 208 204 196 195 191 198 212 203 188 166 148 135 124 117 113 111 110 109 108 107 106 104 102 103 103 103 103 102 101 101 100 100 101 101 101 99 96 92 88 84 81 77 73 69 66 62 59 56 54 52 49 48 48 47 48 47 46 44 42 41 40 38 37 36 36 36 37 36 36 35
115 93 95 95 19 20 31 2 49 130 250 256 281 290 215 231 260 244 227 245 192 168 179 186 191 204 204 203 203 193 191 186 189 206 198 188 175 161 145 130 123 120 117 114 113 112 110 108 107 106 105 105 105 104 103 101 100 99 99 99 99 98 96 93 89 86 82 78 74 70 66 62 58 54 51 49 46 43 41 41 39 39 39 38 38 36 34 33 31 30 29 28 28 28 27 26 25
86 96 119 119 11 24 11 298 215 221 246 265 300 283 213 232 250 251 233 231 217 198 192 182 184 192 194 195 196 188 187 187 190 197 196 193 184 171 152 138 131 127 122 119 118 116 115 113 111 109 108 108 107 105 103 101 100 100 99 98 97 95 92 89 87 84 79 74 70 66 61 57 53 50 47 45 42 38 36 35 34 33 33 32 31 29 28 26 25 23 22 22 22 21 20 18 18
160 150 143 141 127 118 233 260 263 259 257 297 295 227 220 261 266 250 213 213 226 228 258 203 188 188 189 189 185 182 190 194 195 192 193 197 190 178 160 147 140 134 128 125 124 122 120 117 115 113 112 111 109 107 105 103 102 101 100 99 97 95 92 88 85 81 77 72 66 63 59 55 52 49 45 43 39 35 33 32 30 30 29 27 24 23 21 19 18 17 16 15 13 13 13 10 10
180 171 139 149 157 159 210 216 205 243 259 304 305 223 190 202 248 266 217 285 308 291 294 278 224 200 183 175 175 184 197 200 198 192 198 201 192 181 168 155 147 140 135 132 129 127 124 121 119 117 117 116 113 110 108 106 106 105 102 99 96 93 90 87 84 79 74 69 63 60 57 52 49 46 42 38 34 30 28 26 24 23 22 21 18 17 15 13 12 11 9 9 6 4 3 1 360
201 134 114 170 190 150 152 187 170 173 268 276 244 228 223 192 199 312 25 16 318 279 268 227 225 208 172 176 189 195 205 201 192 193 202 202 193 185 175 164 155 148 142 138 134 132 129 126 124 122 120 120 117 115 113 111 110 108 104 100 96 92 88 85 82 76 69 63 57 52 49 45 41 37 33 29 25 22 20 18 16 15 15 13 12 11 9 8 7 5 3 3 1 358 357 356 353
153 137 175 220 190 115 112 213 84 80 256 257 199 231 284 302 263 320 53 82 214 216 224 206 208 196 178 196 203 202 207 198 191 197 199 197 192 189 182 172 164 156 148 143 139 136 134 132 130 128 126 125 123 120 118 115 113 110 105 100 95 90 85 80 75 70 63 57 51 46 42 37 33 29 24 20 17 14 12 10 9 8 7 6 5 5 4 3 2 1 360 358 356 354 352 352 350
126 177 208 194 124 91 105 201 12 48 246 268 223 224 245 175 239 311 61 238 228 206 203 198 197 192 194 204 206 206 205 192 192 196 196 197 195 193 188 179 170 161 152 147 143 140 139 137 136 134 133 132 129 125 122 118 114 109 104 100 94 88 82 77 71 65 58 51 46 42 35 31 27 21 16 12 9 7 6 4 3 2 0 359 359 359 358 358 357 356 355 354 353 351 349 348 347
127 186 191 112 142 154 99 166 203 201 243 284 280 241 233 195 205 202 198 218 214 193 188 193 194 194 198 204 207 208 199 185 189 192 196 199 198 197 191 182 174 165 157 151 147 145 144 142 141 139 137 135 133 129 125 120 114 109 104 100 94 87 80 74 68 59 47 39 35 31 24 19 15 10 6 3 1 360 359 359 358 357 355 354 353 353 352 352 352 351 350 350 349 348 345 344 344
63 98 115 76 151 167 152 162 168 182 220 280 289 270 239 223 202 182 196 207 192 174 184 201 199 195 196 200 201 202 194 186 190 193 197 197 197 198 192 184 177 169 163 157 154 153 151 150 149 146 144 141 138 134 129 123 117 112 107 102 96 91 84 75 64 47 32 26 22 15 9 7 3 358 356 355 355 354 354 354 354 352 351 350 349 349 348 347 346 346 346 345 344 343 342 340 340
123 133 159 177 113 120 194 212 119 139 180 209 282 283 258 243 203 185 199 204 185 179 188 195 196 195 199 201 200 197 188 186 194 195 193 192 195 197 193 186 179 171 167 165 162 161 159 159 158 154 151 148 144 139 134 128 122 119 116 113 111 106 91 66 42 28 18 12 6 360 358 357 353 350 351 351 351 352 352 352 352 351 350 349 347 346 345 344 343 342 342 341 340 339 338 336 336
162 176 181 183 170 133 177 245 182 114 183 181 211 272 264 240 199 200 214 212 195 192 188 184 188 195 201 204 199 191 184 190 198 193 184 186 192 195 193 188 183 177 174 171 169 169 168 166 164 161 157 153 149 146 142 139 137 139 139 134 131 124 90 39 11 2 356 353 351 350 350 349 348 348 348 349 349 350 351 351 351 350 349 349 347 346 346 345 343 342 340 339 338 336 334 333 332